User: anonymous   Login
Location: Lesignano de� Bagni
(44.6500°N, 10.3000°E)
Time: 13:08:20
(UTC+00:00)
Language:

SME Rocket - Orbit

View from above orbital plane
View from above orbital plane
View from above satellite
View from above satellite

Ground track
Ground track

The orbit data is extracted from the following two-line orbital elements,

1 12889U 81100C   21128.81301289  .00000012  00000-0  20724-4 0  9996
2 12889  99.8646 326.1912 1316807  66.9737 315.5024 12.18065065754077
Epoch (UTC): 08 May 2021 19:30:44
Eccentricity: 0.1316807
inclination: 99.8646°
perigee height: 550 km
apogee height: 2651 km
right ascension of ascending node: 326.1912°
argument of perigee: 66.9737°
revolutions per day: 12.18065065
mean anomaly at epoch: 315.5024°
orbit number at epoch: 75407

The dashed part of the orbit path shows where the satellite is in the earth's shadow,  

DLR